Home > Weather > Pirmasens > Past weeks

Flag for Germany Weather for the Past 2 Weeks in Pirmasens, Rhineland-Palatinate, Germany

Now
74 °F

Sunny.


Feels Like: 77 °F
Forecast: 46 / 69 °F
Wind: 13 mph from Northeast

Location: Ramstein

Current Time: May 6, 2016 at 7:12:13 PM

Latest Report: May 6, 2016 at 5:58 PM


Visibility: N/A

Pressure: 29.90 "Hg

Humidity: 38%

Dew Point: 47 °F

Location of PirmasensLocation

Historic Weather in Pirmasens — Graph

°F

Pirmasens Temperature Yesterday

Maximum temperature yesterday: 67 °F (at 4:58 PM)
Minimum temperature yesterday: 28 °F (at 5:58 AM)
Average temperature yesterday: 50 °F

High & Low Weather Summary for the Past Weeks

 TemperatureHumidityPressure
High75 °F (May 6, 3:58 PM)100% (Apr 22, 3:58 AM)30.40 "Hg (Apr 22, 3:58 AM)
Low27 °F (Apr 25, 5:58 AM)32% (Apr 21, 6:58 PM)29.59 "Hg (Apr 26, 2:58 AM)
Average45 °F77%30.02 "Hg
* Reported Apr 21 5:58 PM — May 6 5:58 PM, Pirmasens, Weather by CustomWeather, © 2016

Note: Actual official high and low records may vary slightly from our data, if they occured in-between our weather recording intervals... More about our weather records

Advertising

Pirmasens Weather History for the Previous 24 Hours

Scroll right to see more
 ConditionsComfort  
Time TempWeatherWind HumidityBarometerVisibility
5:58 PM
Fri, May 6
74 °FSunny.13 mph38%29.90 "HgN/A
4:58 PM72 °FPassing clouds.8 mph40%29.92 "HgN/A
3:58 PM75 °FSunny.6 mph33%29.92 "HgN/A
2:58 PM73 °FSunny.3 mph34%29.96 "HgN/A
1:58 PM72 °FSunny.12 mph33%29.97 "HgN/A
12:58 PM71 °FSunny.8 mph34%29.99 "HgN/A
11:58 AM69 °FSunny.9 mph37%30.00 "HgN/A
10:58 AM67 °FSunny.8 mph41%30.01 "HgN/A
9:58 AM61 °FSunny.1 mph63%30.01 "HgN/A
8:58 AM55 °FSunny.3 mph78%30.01 "HgN/A
7:58 AM48 °FSunny.1 mph100%30.02 "HgN/A
6:58 AM41 °FSunny.1 mph100%30.03 "HgN/A
5:58 AM37 °FClear.No wind100%30.02 "HgN/A
4:58 AM37 °FClear.1 mph100%30.02 "HgN/A
3:58 AM39 °FClear.1 mph99%30.04 "HgN/A
2:58 AM39 °FClear.7 mph100%30.04 "HgN/A
1:58 AM39 °FClear.8 mph98%30.05 "HgN/A
12:58 AM41 °FClear.2 mph100%30.06 "HgN/A
11:58 PM
Thu, May 5
43 °FClear.No wind100%30.06 "HgN/A
10:58 PM50 °FClear.5 mph80%30.08 "HgN/A
9:58 PM54 °FClear.3 mph67%30.08 "HgN/A
8:58 PM61 °FSunny.9 mph52%30.07 "HgN/A
7:58 PM64 °FSunny.13 mph46%30.07 "HgN/A
Weather by CustomWeather, © 2016

See weather overviewHow to use our weather pages